www.pogodaiklimat.ru

Погода и климат >> Архив погоды >> Япония >> Сайго


ПОГОДА в Сайго

  • Прогноз погоды в Сайго
  • Монитор погоды в Сайго

АРХИВ ПОГОДЫ в Сайго

Время (UTC), дата Ветер
(напр.,м/с)
 
Видим.   Явления Облачность Т
(С)
Тd
(С)
f
(%)
Тe
(С)
Тes
(С)
Комфортность P
(гПа)
Po
(гПа)
Тmin
(С)
Tmax
(С)
R
(мм)
R24
(мм)
S
(см)
22 13.06 С 2 20 км н/о +19.6 +17.4 87 +23 +23 комфорт 1008.9 1005.6
23 13.06 СЗ 1 20 км н/о +22.5 +18.3 77 +28 +28 душно 1008.5 1005.3
00 14.06 ЮВ 3 20 км н/о +23.7 +17.5 68 +28 +28 душно 1008.1 1004.9 +15.7
02 14.06 В 2 20 км н/о +24.1 +17.6 67 +28 +28 душно 1008.0 1004.8
03 14.06 Ю 1 20 км н/о +22.9 +18.5 76 +29 +29 очень
душно
1007.2 1004.0
04 14.06 В 2 20 км н/о +22.9 +18.0 74 +28 +28 душно 1006.8 1003.6
05 14.06 СВ 1 20 км н/о +23.0 +17.9 73 +28 +28 душно 1006.4 1003.2
06 14.06 СВ 1 20 км н/о +22.8 +17.3 71 +28 +28 душно 1005.8 1002.6
07 14.06 Ю 1 16 км слаб. дождь н/о +22.3 +17.9 76 +27 +27 душно 1005.5 1002.3
08 14.06 СЗ 2 17 км в посл. час дождь н/о +22.3 +19.5 84 +28 +28 душно 1004.9 1001.7
09 14.06 С 2 11 км слаб. дождь н/о +21.6 +19.5 88 +27 +27 душно 1004.6 1001.4
10 14.06 СВ 1 8000 м в посл. час дождь н/о +20.7 +19.9 95 +27 +27 душно 1004.7 1001.5
11 14.06 З 3 11 км н/о +20.4 +19.1 92 +25 +25 комфорт 1004.4 1001.1
12 14.06 ЮВ 6 3300 м дождь н/о +19.9 +19.3 96 +23 +23 комфорт 1005.1 1001.8 +24.2 2
13 14.06 СВ 2 2400 м дождь н/о +19.3 +19.3 100 +22 +22 комфорт 1004.6 1001.3
14 14.06 СЗ 2 6000 м слаб. дождь н/о +19.4 +19.4 100 +23 +23 комфорт 1003.8 1000.5
15 14.06 ЮЗ 1 6000 м дождь н/о +19.4 +18.9 97 +23 +23 комфорт 1003.3 1000.0
16 14.06 СВ 2 5000 м слаб. дождь н/о +18.9 +18.9 100 +21 +21 комфорт 1001.9 998.6
17 14.06 СЗ 1 9000 м в посл. час дождь н/о +18.9 +18.9 100 +22 +22 комфорт 1000.8 997.5
18 14.06 СВ 5 20 км {дождь} н/о +19.5 +18.5 94 +22 +22 комфорт 999.6 996.4 7
19 14.06 СВ 3 18 км н/о +19.8 +18.3 91 +23 +23 комфорт 999.4 996.2
20 14.06 В 6 13 км слаб. дождь н/о +19.6 +18.1 91 +22 +22 комфорт 999.0 995.8
21 14.06 В 9 9000 м слаб. дождь н/о +18.9 +18.3 96 +20 +20 998.8 995.5
22 14.06 В 8 8000 м слаб. дождь н/о +18.4 +18.1 98 +18 +18 998.3 995.0
23 14.06 СВ 7 8000 м слаб. дождь н/о +18.4 +18.1 98 +18 +18 997.9 994.6
00 15.06 В 8 12 км слаб. дождь н/о +18.2 +17.9 98 +18 +18 997.5 994.2 +18.1 11
01 15.06 СВ 4 6000 м дождь н/о +18.0 +17.8 99 +18 +18 996.9 993.6
02 15.06 СВ 5 7000 м слаб. дождь н/о +17.9 +17.7 99 +17 +17 996.1 992.8
03 15.06 СВ 5 4800 м слаб. дождь н/о +17.7 +17.4 98 +17 +17 995.1 991.8
04 15.06 СВ 3 11 км слаб. дождь н/о +18.0 +17.7 98 +18 +18 994.1 990.9
05 15.06 СВ 3 8000 м слаб. дождь н/о +17.9 +17.4 97 +18 +18 993.5 990.3
06 15.06 СВ 3 7000 м слаб. дождь н/о +18.2 +17.7 97 +19 +19 993.0 989.8 10
07 15.06 С 3 8000 м слаб. дождь н/о +18.0 +17.5 97 +18 +18 992.5 989.3
08 15.06 СЗ 2 6000 м дождь н/о +18.0 +17.7 98 +19 +19 992.6 989.4
09 15.06 СЗ 3 6000 м дождь н/о +17.7 +17.6 99 +18 +18 992.7 989.5
10 15.06 С 2 11 км слаб. дождь н/о +17.8 +17.2 96 +18 +18 992.9 989.7
11 15.06 С 3 12 км слаб. дождь н/о +17.6 +16.6 94 +18 +18 993.6 990.3
12 15.06 СЗ 3 16 км слаб. дождь н/о +17.2 +15.9 92 +17 +17 994.3 991.0 +18.3 27
13 15.06 СЗ 3 19 км слаб. дождь н/о +17.1 +16.5 96 +17 +17 994.7 991.4
14 15.06 СЗ 3 20 км слаб. дождь н/о +17.0 +16.0 94 +17 +17 995.0 991.7
15 15.06 З 2 20 км слаб. дождь н/о +17.5 +16.5 94 +18 +18 995.6 992.3
16 15.06 СЗ 2 16 км слаб. дождь н/о +17.5 +16.2 92 +18 +18 995.9 992.6
17 15.06 СЗ 4 16 км слаб. дождь н/о +17.8 +16.5 92 +18 +18 996.1 992.8
18 15.06 СЗ 5 12 км слаб. дождь н/о +17.7 +16.6 93 +17 +17 996.9 993.6 1
19 15.06 З 4 15 км слаб. дождь н/о +17.8 +16.5 92 +18 +18 997.7 994.4
20 15.06 З 4 15 км слаб. дождь н/о +17.7 +16.2 91 +18 +18 998.8 995.5
21 15.06 СЗ 3 17 км в посл. час дождь н/о +17.9 +16.1 89 +18 +18 999.5 996.2
22 15.06 СЗ 3 18 км н/о +18.0 +15.8 87 +18 +18 1000.2 996.9
23 15.06 СЗ 4 19 км н/о +18.4 +15.8 85 +19 +19 1001.2 997.9
00 16.06 СЗ 5 20 км в посл. час дождь н/о +18.9 +16.0 83 +20 +20 1001.8 998.5 +16.9 2
01 16.06 СЗ 4 19 км н/о +19.3 +15.8 80 +21 +21 комфорт 1002.5 999.2
02 16.06 СЗ 3 18 км н/о +19.4 +16.1 81 +21 +21 комфорт 1003.4 1000.1
03 16.06 СЗ 4 20 км в посл. час дождь н/о +20.0 +15.7 76 +22 +22 комфорт 1004.0 1000.7
04 16.06 СЗ 6 20 км в посл. час дождь н/о +20.2 +15.0 72 +22 +22 комфорт 1004.5 1001.2
05 16.06 СЗ 6 20 км н/о +20.5 +14.6 69 +23 +23 комфорт 1005.2 1001.9
06 16.06 СЗ 7 20 км {дождь} н/о +19.6 +14.9 74 +21 +21 комфорт 1006.4 1003.1 0.0
07 16.06 СЗ 6 20 км н/о +19.8 +14.6 72 +22 +22 комфорт 1006.5 1003.2
08 16.06 СЗ 6 20 км н/о +19.1 +14.4 74 +20 +20 1007.2 1003.9
09 16.06 СЗ 4 20 км н/о +18.3 +14.0 76 +19 +19 1008.0 1004.7
10 16.06 С 2 20 км н/о +17.7 +13.8 78 +18 +18 1008.9 1005.6
11 16.06 С 2 20 км н/о +17.6 +13.9 79 +18 +18 1009.3 1006.0
12 16.06 З 2 20 км н/о +17.5 +14.0 80 +18 +18 1010.7 1007.4 +21.4 0.0
13 16.06 СЗ 2 11 км слаб. дождь н/о +16.9 +14.9 88 +17 +17 1011.6 1008.3
14 16.06 З 1 20 км в посл. час дождь н/о +16.5 +15.0 91 +17 +17 1011.7 1008.4
15 16.06 ЮЗ 1 20 км {дождь} н/о +16.2 +14.7 91 +17 +17 1011.3 1008.0
16 16.06 СЗ 1 18 км н/о +15.1 +14.5 96 +16 +16 1011.6 1008.3
17 16.06 З 1 17 км н/о +14.9 +14.4 97 +15 +15 1012.0 1008.7
18 16.06 СЗ 2 15 км {дождь} н/о +14.4 +14.1 98 +14 +14 1012.8 1009.4 0.0
19 16.06 СЗ 2 14 км н/о +13.8 +13.7 99 +13 +13 1013.0 1009.6
20 16.06 СЗ 2 14 км н/о +13.3 +13.2 99 +13 +13 1013.2 1009.8
21 16.06 СЗ 1 16 км н/о +13.6 +13.3 98 +14 +14 1013.3 1009.9
22 16.06 СЗ 1 20 км н/о +16.0 +14.0 88 +17 +17 1013.2 1009.9
23 16.06 В 1 20 км н/о +18.8 +13.9 73 +21 +21 комфорт 1013.6 1010.3
00 17.06 ЮВ 3 20 км н/о +19.6 +14.6 73 +22 +22 комфорт 1013.9 1010.6 +13.2 0.0
01 17.06 ЮВ 4 20 км н/о +19.7 +14.5 72 +22 +22 комфорт 1014.0 1010.7
02 17.06 ЮВ 4 20 км н/о +20.1 +14.5 70 +22 +22 комфорт 1014.0 1010.7
03 17.06 ЮВ 4 20 км н/о +20.5 +14.9 70 +23 +23 комфорт 1014.0 1010.7
04 17.06 ЮВ 5 20 км н/о +21.0 +15.6 71 +24 +24 комфорт 1013.5 1010.2
05 17.06 ЮВ 4 20 км н/о +20.3 +15.3 73 +23 +23 комфорт 1013.3 1010.0
06 17.06 ЮВ 4 20 км н/о +20.5 +15.5 73 +23 +23 комфорт 1013.2 1009.9
07 17.06 Ю 3 20 км н/о +20.6 +15.2 71 +24 +24 комфорт 1012.9 1009.6
08 17.06 Ю 3 20 км н/о +21.1 +15.9 72 +24 +24 комфорт 1012.5 1009.2
09 17.06 Ю 2 20 км н/о +20.5 +15.9 75 +24 +24 комфорт 1012.4 1009.1
10 17.06 ЮВ 2 20 км н/о +19.2 +15.9 81 +21 +21 комфорт 1012.8 1009.5
11 17.06 С 1 13 км н/о +18.2 +16.2 88 +20 +20 1013.1 1009.8
12 17.06 З 1 15 км н/о +17.6 +16.3 92 +19 +19 1013.4 1010.1 +21.7
13 17.06 З 1 15 км н/о +16.7 +16.1 96 +18 +18 1013.9 1010.6
14 17.06 СЗ 1 17 км н/о +16.2 +15.7 97 +17 +17 1013.7 1010.4
15 17.06 СЗ 2 17 км н/о +15.7 +15.4 98 +16 +16 1013.5 1010.2
16 17.06 СЗ 1 18 км н/о +15.3 +15.0 98 +16 +16 1013.2 1009.9
18 17.06 СЗ 2 19 км н/о +14.7 +14.6 99 +15 +15 1012.6 1009.2
19 17.06 СЗ 2 18 км н/о +14.4 +14.4 100 +14 +14 1012.3 1008.9
20 17.06 СЗ 2 17 км н/о +14.1 +14.1 100 +14 +14 1012.6 1009.2
21 17.06 СЗ 1 20 км н/о +15.1 +14.8 98 +16 +16 1012.2 1008.9
22 17.06 штиль 0 20 км н/о +18.2 +16.5 90 +19 +19 1012.4 1009.1
23 17.06 ЮВ 1 20 км н/о +21.6 +18.4 82 +26 +26 душно 1011.9 1008.6
00 18.06 ЮЗ 4 20 км н/о +22.2 +16.7 71 +27 +27 душно 1011.7 1008.4 +14.0
01 18.06 ЮЗ 3 20 км н/о +23.2 +18.1 73 +29 +29 душно 1011.2 1008.0
02 18.06 ЮЗ 4 18 км н/о +23.1 +18.4 75 +29 +29 очень
душно
1011.0 1007.8
03 18.06 ЮЗ 4 20 км н/о +23.4 +17.4 69 +29 +29 душно 1010.7 1007.5
04 18.06 ЮЗ 4 20 км н/о +23.7 +16.3 63 +27 +27 жарко 1010.2 1007.0
05 18.06 З 6 20 км н/о +23.7 +17.5 68 +28 +28 душно 1010.0 1006.8
06 18.06 З 7 20 км н/о +23.7 +17.2 67 +28 +28 душно 1009.6 1006.4
07 18.06 З 6 20 км н/о +23.5 +17.3 68 +27 +27 душно 1009.3 1006.1
08 18.06 З 7 20 км н/о +22.8 +17.3 71 +28 +28 душно 1009.0 1005.8
09 18.06 З 5 20 км н/о +21.9 +17.9 78 +27 +27 душно 1009.0 1005.8
10 18.06 З 5 19 км н/о +21.2 +18.0 82 +25 +25 комфорт 1009.4 1006.1
11 18.06 З 4 20 км н/о +20.8 +17.8 83 +25 +25 комфорт 1009.5 1006.2
12 18.06 З 3 20 км н/о +21.0 +17.4 80 +25 +25 комфорт 1009.8 1006.5 +24.7
13 18.06 З 4 17 км н/о +20.7 +17.9 84 +25 +25 комфорт 1009.7 1006.4
14 18.06 З 3 14 км н/о +20.2 +18.3 89 +24 +24 комфорт 1009.4 1006.1
15 18.06 З 4 13 км н/о +20.2 +18.3 89 +24 +24 комфорт 1009.2 1005.9
16 18.06 З 3 11 км н/о +20.2 +18.7 91 +24 +24 комфорт 1009.0 1005.7
17 18.06 З 3 11 км н/о +20.4 +18.7 90 +24 +24 комфорт 1008.2 1004.9
18 18.06 З 4 11 км н/о +20.6 +18.6 88 +25 +25 комфорт 1007.9 1004.6
19 18.06 З 4 10 км в посл. час дождь н/о +20.5 +18.8 90 +25 +25 комфорт 1007.8 1004.5
20 18.06 ЮЗ 3 8000 м дымка н/о +20.2 +19.0 93 +24 +24 комфорт 1008.1 1004.8
21 18.06 З 2 8000 м дымка {дождь} н/о +20.2 +19.0 93 +25 +25 комфорт 1008.2 1004.9
22 18.06 ЮЗ 2 7000 м слаб. дождь н/о +20.6 +19.3 92 +26 +26 душно 1008.2 1004.9
23 18.06 ЮЗ 2 9000 м в посл. час дождь н/о +20.5 +19.0 91 +25 +25 комфорт 1008.2 1004.9
00 19.06 З 2 8000 м в посл. час дождь н/о +21.2 +19.3 89 +26 +26 душно 1007.8 1004.5 +19.9 0.0
01 19.06 З 3 9000 м дымка н/о +22.6 +19.6 83 +29 +29 очень
душно
1007.4 1004.2
02 19.06 ЮЗ 3 11 км н/о +24.4 +19.7 75 +30 +30 очень
душно
1006.8 1003.6
03 19.06 ЮЗ 5 15 км н/о +24.4 +20.1 77 +30 +30 очень
душно
1006.5 1003.3
04 19.06 ЮЗ 4 15 км н/о +24.9 +20.0 74 +30 +30 душно 1005.9 1002.7
05 19.06 Ю 2 15 км н/о +25.7 +20.5 73 +32 +32 очень
душно
1005.3 1002.1
06 19.06 ЮВ 4 12 км н/о +23.6 +19.8 79 +29 +29 душно 1005.4 1002.2
07 19.06 ЮВ 3 10 км н/о +22.9 +19.7 82 +29 +29 очень
душно
1005.3 1002.1
08 19.06 Ю 2 9000 м дымка н/о +21.9 +19.7 87 +27 +27 душно 1005.2 1002.0
09 19.06 Ю 2 8000 м дымка н/о +21.5 +20.2 92 +27 +27 душно 1005.2 1002.0
10 19.06 ЮВ 2 5000 м дымка н/о +21.1 +20.4 96 +26 +26 душно 1005.5 1002.3
11 19.06 Ю 1 7000 м дымка н/о +20.9 +19.7 93 +27 +27 душно 1005.8 1002.5
12 19.06 ЮЗ 1 6000 м дымка н/о +20.5 +19.7 95 +26 +26 душно 1006.0 1002.7 +26.5
13 19.06 ЮЗ 1 5000 м дымка н/о +20.1 +19.5 96 +25 +25 комфорт 1006.1 1002.8
14 19.06 СЗ 2 7000 м дымка н/о +20.0 +19.4 96 +24 +24 комфорт 1006.1 1002.8
15 19.06 СЗ 2 6000 м дымка н/о +19.9 +19.3 96 +24 +24 комфорт 1006.1 1002.8
16 19.06 СЗ 2 5000 м дымка н/о +19.6 +19.0 96 +23 +23 комфорт 1005.8 1002.5
17 19.06 СЗ 2 4300 м дымка н/о +19.3 +18.8 97 +22 +22 комфорт 1005.5 1002.2
18 19.06 СЗ 2 3000 м дымка н/о +18.6 +18.4 99 +20 +20 1005.8 1002.5
19 19.06 СЗ 2 3200 м дымка н/о +18.2 +18.2 100 +19 +19 1005.7 1002.4
20 19.06 СЗ 3 3300 м дымка н/о +17.9 +17.9 100 +18 +18 1006.4 1003.1
21 19.06 В 1 7000 м дымка н/о +18.0 +17.7 98 +20 +20 1006.6 1003.3
22 19.06 СЗ 1 9000 м дымка н/о +19.7 +18.0 90 +23 +23 комфорт 1007.2 1003.9
23 19.06 ЮВ 2 11 км н/о +22.1 +18.5 80 +27 +27 душно 1006.8 1003.6
00 20.06 ЮВ 4 8000 м дымка н/о +22.5 +19.3 82 +28 +28 душно 1007.1 1003.9 +17.5
01 20.06 ЮВ 4 8000 м дымка н/о +23.2 +19.4 79 +30 +30 очень
душно
1006.9 1003.7
02 20.06 ЮВ 6 8000 м дымка н/о +22.2 +19.0 82 +28 +28 душно 1006.9 1003.7
03 20.06 Ю 3 9000 м дымка н/о +23.1 +19.1 78 +29 +29 очень
душно
1007.0 1003.8
04 20.06 ЮЗ 4 14 км н/о +25.7 +19.6 69 +31 +31 очень
душно
1006.7 1003.5
05 20.06 ЮЗ 4 16 км н/о +26.5 +18.9 63 +32 +32 очень
душно
1006.0 1002.8
06 20.06 В 3 12 км н/о +25.5 +21.2 77 +32 +32 очень
душно
1005.8 1002.6
07 20.06 Ю 2 7000 м дымка н/о +23.4 +20.0 81 +30 +30 очень
душно
1005.9 1002.7
08 20.06 ЮВ 3 7000 м дымка н/о +22.9 +20.1 84 +30 +30 очень
душно
1006.0 1002.8
09 20.06 ЮВ 3 6000 м дымка н/о +22.1 +19.7 86 +28 +28 душно 1006.3 1003.1
10 20.06 Ю 2 7000 м дымка н/о +21.5 +19.8 90 +27 +27 душно 1006.4 1003.2
11 20.06 Ю 1 6000 м дымка н/о +21.4 +20.1 92 +27 +27 душно 1007.1 1003.9
12 20.06 СВ 1 6000 м дымка н/о +21.1 +20.1 94 +26 +26 душно 1007.8 1004.5 +27.2
13 20.06 СЗ 1 6000 м дымка н/о +20.1 +19.3 95 +25 +25 комфорт 1008.0 1004.7
15 20.06 СЗ 1 7000 м дымка н/о +19.1 +18.5 96 +22 +22 комфорт 1007.5 1004.2
16 20.06 СЗ 1 6000 м дымка н/о +19.1 +18.5 96 +22 +22 комфорт 1007.0 1003.7
17 20.06 СЗ 1 6000 м дымка н/о +18.8 +18.3 97 +21 +21 комфорт 1006.5 1003.2
18 20.06 З 1 6000 м дымка н/о +18.8 +18.3 97 +21 +21 комфорт 1006.5 1003.2
19 20.06 СЗ 2 7000 м дымка н/о +18.4 +17.9 97 +20 +20 1006.7 1003.4
20 20.06 СЗ 2 8000 м дымка н/о +18.3 +17.7 96 +20 +20 1006.4 1003.1

 

Местоположение метеостанции Сайго (Япония): широта 36.20 долгота 133.33 высота над уровнем моря 31 м.

В архиве по умолчанию представлена погода в Сайго за последнюю неделю. Архивные данные за месяц целиком и за предыдущие месяцы, начиная с января 2011 года, Вы можете получить, выбрав интересующий диапазон дат из раскрывающегося списка и нажав кнопку "Ввод!".


*Определитесь, кто Вы:
робот инопланетянин человек

Внимание! Время в таблицах - всемирное. Для получения местного времени необходимо прибавить поправку, которая равна 9 ч.

Смотрите также архив погоды в соседних городах и на ближайших метеорологических станциях:

Погода в Сакаи (Япония) (73 км)
Погода в Йонаго (Япония) (86 км)
Погода в Мацуэ (Япония) (87 км)
Погода в Тоттори (Япония) (112 км)
Погода в Цуяме (Япония) (140 км)
Погода в Тоёоке (Япония) (153 км)
Погода в Окаяме (Япония) (178 км)
Погода в Хамаде (Япония) (185 км)
Погода в Химедзи (Япония) (194 км)
Погода в Фукуяме (Япония) (195 км)

Пояснения к столбцам:

Ветер - указаны скорость ветра в м/с - средняя за 10 мин, порывы в срок и между сроками (в фигурных скобках) и направление, откуда дует ветер: С - северный, СВ - северо-восточный, В - восточный, ЮВ - юго-восточный, Ю - южный, ЮЗ - юго-западный, З - западный, СЗ - северо-западный.
Видимость - горизонтальная дальность видимости в метрах или километрах. При видимости от 1 до 10 км при отсутствии осадков обычно наблюдается дымка, при ухудшении видимости до 1 км и менее - туман. В сухую погоду видимость может ухудшаться дымом, пылью или мглою.
Явления - указаны атмосферные явления, наблюдавшиеся в срок или в последний час перед сроком; фигурными скобками обозначены явления, наблюдавшиеся между сроками (за 1-3 часа до срока); квадратными скобками обозначены град или гололедные отложения с указанием их диаметра в мм.
Облачность - указаны через наклонную черту общая и нижняя облачность в баллах и высота нижней границы облаков в метрах; квадратными скобками обозначены формы облаков: Ci - перистые, Cs - перисто-слоистые, Cc - перисто-кучевые, Ac - высококучевые, As - высокослоистые, Sc - слоисто-кучевые, Ns - слоисто-дождевые, Cu - кучевые, Cb - кучево-дождевые. Подробнее классификацию облаков см. в Атласе облаков (PDF).
T - Температура воздуха - температура, измеренная на высоте 2 м над землей.
Td - Температура точки росы - температура, при понижении до которой содержащийся в воздухе водяной пар достигнет насыщения.
f - Относительная влажность воздуха - влажноcть воздуха, измеренная на высоте 2 м над землей.
Te - Эффективная температура - температура, которую ощущает одетый по сезону человек в тени. Характеристика душности погоды. При расчете учитывается влияние влажности воздуха и скорости ветра на теплоощущения человека.
Tes - Эффективная температура на солнце - температура, которую ощущает человек, с поправкой на солнечный нагрев. Характеристика знойности погоды. Зависит от высоты солнца над горизонтом, облачности и скорости ветра. Ночью, в пасмурную погоду, а также при ветре 12 м/с и более поправка равна нулю.
P - Атмосферное давление - приведенное к уровню моря атмосферное давление.
Po - Атмосферное давление - измеренное на уровне метеостанции атмосферное давление.
Tmin - Минимальная температура - минимум температуры воздуха на высоте 2 м над землей.
Tmax - Максимальная температура - максимум температуры воздуха на высоте 2 м над землей.
R - Количество осадков - Количество выпавших осадков за период времени, мм. При наведении курсора мыши на число - период времени, за который выпало указанное количество осадков.
R24 - Количество осадков - Количество выпавших осадков за 24 часа, мм.
S - Снежный покров - Высота снежного покрова, см. При наведении курсора мыши на число - состояние снежного покрова и степень покрытия местности в баллах.